����������;��������(kWh)
2018-08-06 00:00;79,7
2018-08-06 00:15;80,3
2018-08-06 00:30;78,95
2018-08-06 00:45;79,8
2018-08-06 01:00;78,75
2018-08-06 01:15;79,4
2018-08-06 01:30;78,1
2018-08-06 01:45;77,55
2018-08-06 02:00;79,25
2018-08-06 02:15;78,4
2018-08-06 02:30;79,95
2018-08-06 02:45;78,05
2018-08-06 03:00;77,45
2018-08-06 03:15;79,45
2018-08-06 03:30;77,5
2018-08-06 03:45;78,95
2018-08-06 04:00;78,75
2018-08-06 04:15;78,65
2018-08-06 04:30;78,95
2018-08-06 04:45;79,3
2018-08-06 05:00;79,2
2018-08-06 05:15;78,9
2018-08-06 05:30;78,25
2018-08-06 05:45;77,95
2018-08-06 06:00;80,2
2018-08-06 06:15;74,8
2018-08-06 06:30;75,6
2018-08-06 06:45;73,05
2018-08-06 07:00;70,15
2018-08-06 07:15;71,45
2018-08-06 07:30;69,55
2018-08-06 07:45;71,9
2018-08-06 08:00;72,6
2018-08-06 08:15;72,75
2018-08-06 08:30;75,65
2018-08-06 08:45;75,7
2018-08-06 09:00;77,25
2018-08-06 09:15;78,15
2018-08-06 09:30;77,05
2018-08-06 09:45;78,4
2018-08-06 10:00;78,85
2018-08-06 10:15;82,15
2018-08-06 10:30;83,1
2018-08-06 10:45;86,95
2018-08-06 11:00;88,7
2018-08-06 11:15;87,25
2018-08-06 11:30;88,9
2018-08-06 11:45;89,25
2018-08-06 12:00;91,75
2018-08-06 12:15;89,85
2018-08-06 12:30;90,8
2018-08-06 12:45;92,45
2018-08-06 13:00;88,55
2018-08-06 13:15;91,15
2018-08-06 13:30;89,8
2018-08-06 13:45;90,35
2018-08-06 14:00;89,75
2018-08-06 14:15;90,75
2018-08-06 14:30;91,3
2018-08-06 14:45;91,1
2018-08-06 15:00;90,3
2018-08-06 15:15;89,4
2018-08-06 15:30;92,5
2018-08-06 15:45;90,25
2018-08-06 16:00;91,65
2018-08-06 16:15;89,9
2018-08-06 16:30;89,1
2018-08-06 16:45;88,4
2018-08-06 17:00;85,9
2018-08-06 17:15;84,85
2018-08-06 17:30;83,85
2018-08-06 17:45;82,4
2018-08-06 18:00;85,15
2018-08-06 18:15;84,65
2018-08-06 18:30;84,45
2018-08-06 18:45;85,8
2018-08-06 19:00;88,1
2018-08-06 19:15;89,2
2018-08-06 19:30;87,7
2018-08-06 19:45;91,45
2018-08-06 20:00;88,35
2018-08-06 20:15;85,9
2018-08-06 20:30;88,85
2018-08-06 20:45;91,1
2018-08-06 21:00;90,3
2018-08-06 21:15;88,55
2018-08-06 21:30;86,9
2018-08-06 21:45;88,45
2018-08-06 22:00;85,3
2018-08-06 22:15;83,9
2018-08-06 22:30;80,05
2018-08-06 22:45;81,75
2018-08-06 23:00;86,2
2018-08-06 23:15;83,55
2018-08-06 23:30;84,7
2018-08-06 23:45;89,25
2018-08-07 00:00;79,3
2018-08-07 00:15;79,05
2018-08-07 00:30;79,55
2018-08-07 00:45;77,9
2018-08-07 01:00;80,35
2018-08-07 01:15;78,55
2018-08-07 01:30;78,25
2018-08-07 01:45;79,45
2018-08-07 02:00;78,2
2018-08-07 02:15;78,8
2018-08-07 02:30;79,55
2018-08-07 02:45;77,95
2018-08-07 03:00;77,4
2018-08-07 03:15;75,75
2018-08-07 03:30;77,45
2018-08-07 03:45;78,5
2018-08-07 04:00;76,5
2018-08-07 04:15;77,15
2018-08-07 04:30;77,2
2018-08-07 04:45;77,5
2018-08-07 05:00;78,05
2018-08-07 05:15;77
2018-08-07 05:30;77,35
2018-08-07 05:45;78,15
2018-08-07 06:00;77,4
2018-08-07 06:15;74,75
2018-08-07 06:30;73,35
2018-08-07 06:45;71,2
2018-08-07 07:00;72,95
2018-08-07 07:15;69,65
2018-08-07 07:30;69,8
2018-08-07 07:45;71,55
2018-08-07 08:00;70,15
2018-08-07 08:15;71,8
2018-08-07 08:30;70,65
2018-08-07 08:45;73,1
2018-08-07 09:00;74,2
2018-08-07 09:15;73,6
2018-08-07 09:30;71,65
2018-08-07 09:45;72,9
2018-08-07 10:00;72,35
2018-08-07 10:15;75,3
2018-08-07 10:30;76,4
2018-08-07 10:45;76,2
2018-08-07 11:00;78,35
2018-08-07 11:15;81,2
2018-08-07 11:30;82,95
2018-08-07 11:45;84,15
2018-08-07 12:00;84,05
2018-08-07 12:15;86,25
2018-08-07 12:30;88,45
2018-08-07 12:45;90,25
2018-08-07 13:00;88,1
2018-08-07 13:15;88,45
2018-08-07 13:30;86,35
2018-08-07 13:45;86,7
2018-08-07 14:00;86,05
2018-08-07 14:15;88,2
2018-08-07 14:30;84,85
2018-08-07 14:45;87,45
2018-08-07 15:00;85
2018-08-07 15:15;84,9
2018-08-07 15:30;85,3
2018-08-07 15:45;84,25
2018-08-07 16:00;86,9
2018-08-07 16:15;86,7
2018-08-07 16:30;85,55
2018-08-07 16:45;83,25
2018-08-07 17:00;83,5
2018-08-07 17:15;84,2
2018-08-07 17:30;81,5
2018-08-07 17:45;83,45
2018-08-07 18:00;81,25
2018-08-07 18:15;88,1
2018-08-07 18:30;91,2
2018-08-07 18:45;93,85
2018-08-07 19:00;92,3
2018-08-07 19:15;90,95
2018-08-07 19:30;90,45
2018-08-07 19:45;91,65
2018-08-07 20:00;87,45
2018-08-07 20:15;82,05
2018-08-07 20:30;82,2
2018-08-07 20:45;86,5
2018-08-07 21:00;85,4
2018-08-07 21:15;84,25
2018-08-07 21:30;82,75
2018-08-07 21:45;85,15
2018-08-07 22:00;82,6
2018-08-07 22:15;82,35
2018-08-07 22:30;80,9
2018-08-07 22:45;82,7
2018-08-07 23:00;86
2018-08-07 23:15;82,15
2018-08-07 23:30;83,8
2018-08-07 23:45;87,2
2018-08-08 00:00;78,2
2018-08-08 00:15;78,05
2018-08-08 00:30;78,35
2018-08-08 00:45;76,35
2018-08-08 01:00;76,15
2018-08-08 01:15;77,85
2018-08-08 01:30;75,9
2018-08-08 01:45;77,3
2018-08-08 02:00;77,2
2018-08-08 02:15;78,1
2018-08-08 02:30;77,4
2018-08-08 02:45;78,05
2018-08-08 03:00;78,15
2018-08-08 03:15;77,2
2018-08-08 03:30;77,55
2018-08-08 03:45;78,65
2018-08-08 04:00;76,35
2018-08-08 04:15;78,35
2018-08-08 04:30;77,95
2018-08-08 04:45;79
2018-08-08 05:00;77,15
2018-08-08 05:15;78,1
2018-08-08 05:30;79
2018-08-08 05:45;76,75
2018-08-08 06:00;78,6
2018-08-08 06:15;74,95
2018-08-08 06:30;73,05
2018-08-08 06:45;72,35
2018-08-08 07:00;69,9
2018-08-08 07:15;69,75
2018-08-08 07:30;67,15
2018-08-08 07:45;67,7
2018-08-08 08:00;70,35
2018-08-08 08:15;68,05
2018-08-08 08:30;70,35
2018-08-08 08:45;69,2
2018-08-08 09:00;73,15
2018-08-08 09:15;75,7
2018-08-08 09:30;72,95
2018-08-08 09:45;76
2018-08-08 10:00;74,8
2018-08-08 10:15;77,15
2018-08-08 10:30;79,95
2018-08-08 10:45;82,75
2018-08-08 11:00;82,85
2018-08-08 11:15;81,65
2018-08-08 11:30;86,3
2018-08-08 11:45;84,9
2018-08-08 12:00;86,55
2018-08-08 12:15;88,05
2018-08-08 12:30;87,2
2018-08-08 12:45;87,6
2018-08-08 13:00;88,5
2018-08-08 13:15;89,6
2018-08-08 13:30;88,5
2018-08-08 13:45;91,2
2018-08-08 14:00;89,5
2018-08-08 14:15;90,75
2018-08-08 14:30;90,95
2018-08-08 14:45;87,75
2018-08-08 15:00;88,9
2018-08-08 15:15;87,65
2018-08-08 15:30;88,05
2018-08-08 15:45;87
2018-08-08 16:00;86,25
2018-08-08 16:15;84,1
2018-08-08 16:30;85,1
2018-08-08 16:45;82,8
2018-08-08 17:00;81,75
2018-08-08 17:15;81,35
2018-08-08 17:30;81,95
2018-08-08 17:45;82,05
2018-08-08 18:00;83,65
2018-08-08 18:15;83,65
2018-08-08 18:30;82,95
2018-08-08 18:45;82,85
2018-08-08 19:00;81,25
2018-08-08 19:15;83,75
2018-08-08 19:30;84,1
2018-08-08 19:45;85,55
2018-08-08 20:00;83,9
2018-08-08 20:15;84,45
2018-08-08 20:30;84,25
2018-08-08 20:45;89,05
2018-08-08 21:00;88,15
2018-08-08 21:15;86,75
2018-08-08 21:30;83,9
2018-08-08 21:45;84,35
2018-08-08 22:00;81,7
2018-08-08 22:15;82
2018-08-08 22:30;78,35
2018-08-08 22:45;80,9
2018-08-08 23:00;86,3
2018-08-08 23:15;82,3
2018-08-08 23:30;84,9
2018-08-08 23:45;89
2018-08-09 00:00;78,05
2018-08-09 00:15;77,95
2018-08-09 00:30;78,75
2018-08-09 00:45;77,85
2018-08-09 01:00;78,25
2018-08-09 01:15;78,2
2018-08-09 01:30;80,05
2018-08-09 01:45;77,05
2018-08-09 02:00;77,95
2018-08-09 02:15;77,9
2018-08-09 02:30;77,65
2018-08-09 02:45;80,1
2018-08-09 03:00;76,95
2018-08-09 03:15;80,5
2018-08-09 03:30;78,4
2018-08-09 03:45;78,95
2018-08-09 04:00;79,9
2018-08-09 04:15;79,15
2018-08-09 04:30;79,85
2018-08-09 04:45;79,05
2018-08-09 05:00;80,8
2018-08-09 05:15;79,55
2018-08-09 05:30;77,8
2018-08-09 05:45;80,3
2018-08-09 06:00;79,55
2018-08-09 06:15;78
2018-08-09 06:30;74,7
2018-08-09 06:45;73,15
2018-08-09 07:00;72,75
2018-08-09 07:15;70,15
2018-08-09 07:30;70,35
2018-08-09 07:45;69,4
2018-08-09 08:00;69,9
2018-08-09 08:15;71,05
2018-08-09 08:30;71,05
2018-08-09 08:45;73,95
2018-08-09 09:00;72,25
2018-08-09 09:15;73,6
2018-08-09 09:30;75,65
2018-08-09 09:45;78,35
2018-08-09 10:00;83,2
2018-08-09 10:15;82,8
2018-08-09 10:30;84,2
2018-08-09 10:45;83,85
2018-08-09 11:00;91,85
2018-08-09 11:15;90,9
2018-08-09 11:30;90,45
2018-08-09 11:45;91,05
2018-08-09 12:00;90,9
2018-08-09 12:15;96,5
2018-08-09 12:30;94,15
2018-08-09 12:45;94,65
2018-08-09 13:00;96,95
2018-08-09 13:15;95,35
2018-08-09 13:30;92,5
2018-08-09 13:45;96,25
2018-08-09 14:00;93,95
2018-08-09 14:15;92,05
2018-08-09 14:30;92,8
2018-08-09 14:45;91,7
2018-08-09 15:00;92,8
2018-08-09 15:15;91,2
2018-08-09 15:30;91,1
2018-08-09 15:45;93,65
2018-08-09 16:00;90,6
2018-08-09 16:15;91
2018-08-09 16:30;90,3
2018-08-09 16:45;89,5
2018-08-09 17:00;89,4
2018-08-09 17:15;88,55
2018-08-09 17:30;87,35
2018-08-09 17:45;86,8
2018-08-09 18:00;87,9
2018-08-09 18:15;84,05
2018-08-09 18:30;81,55
2018-08-09 18:45;82,6
2018-08-09 19:00;79,35
2018-08-09 19:15;81,45
2018-08-09 19:30;80,3
2018-08-09 19:45;84,05
2018-08-09 20:00;81,05
2018-08-09 20:15;81,7
2018-08-09 20:30;82,2
2018-08-09 20:45;87,2
2018-08-09 21:00;86
2018-08-09 21:15;84,3
2018-08-09 21:30;85,45
2018-08-09 21:45;83,95
2018-08-09 22:00;84,7
2018-08-09 22:15;82,5
2018-08-09 22:30;82,05
2018-08-09 22:45;79,55
2018-08-09 23:00;86,75
2018-08-09 23:15;83,25
2018-08-09 23:30;83,7
2018-08-09 23:45;89,8
2018-08-10 00:00;78,65
2018-08-10 00:15;78,45
2018-08-10 00:30;80,1
2018-08-10 00:45;76,6
2018-08-10 01:00;79,35
2018-08-10 01:15;77,9
2018-08-10 01:30;77,3
2018-08-10 01:45;78,7
2018-08-10 02:00;77,55
2018-08-10 02:15;78,65
2018-08-10 02:30;77,3
2018-08-10 02:45;77,95
2018-08-10 03:00;77,9
2018-08-10 03:15;78,2
2018-08-10 03:30;77,4
2018-08-10 03:45;80,2
2018-08-10 04:00;78,3
2018-08-10 04:15;78,45
2018-08-10 04:30;79,4
2018-08-10 04:45;80,2
2018-08-10 05:00;79,85
2018-08-10 05:15;79,55
2018-08-10 05:30;80,7
2018-08-10 05:45;78,2
2018-08-10 06:00;79,1
2018-08-10 06:15;76,05
2018-08-10 06:30;74,85
2018-08-10 06:45;72,25
2018-08-10 07:00;70,55
2018-08-10 07:15;71,9
2018-08-10 07:30;67,15
2018-08-10 07:45;70,15
2018-08-10 08:00;67,8
2018-08-10 08:15;69,4
2018-08-10 08:30;68,1
2018-08-10 08:45;72,55
2018-08-10 09:00;72,65
2018-08-10 09:15;74,15
2018-08-10 09:30;73,2
2018-08-10 09:45;75,3
2018-08-10 10:00;74,3
2018-08-10 10:15;74,45
2018-08-10 10:30;74,35
2018-08-10 10:45;77,95
2018-08-10 11:00;73,25
2018-08-10 11:15;77,5
2018-08-10 11:30;75,85
2018-08-10 11:45;77,05
2018-08-10 12:00;79,65
2018-08-10 12:15;78,85
2018-08-10 12:30;82
2018-08-10 12:45;79,1
2018-08-10 13:00;82,4
2018-08-10 13:15;83,95
2018-08-10 13:30;82,25
2018-08-10 13:45;83,35
2018-08-10 14:00;80,25
2018-08-10 14:15;83,9
2018-08-10 14:30;83,7
2018-08-10 14:45;80,95
2018-08-10 15:00;82,25
2018-08-10 15:15;80,65
2018-08-10 15:30;81,25
2018-08-10 15:45;83,4
2018-08-10 16:00;81,8
2018-08-10 16:15;83,45
2018-08-10 16:30;80,9
2018-08-10 16:45;81,35
2018-08-10 17:00;80,75
2018-08-10 17:15;81,25
2018-08-10 17:30;80,8
2018-08-10 17:45;80,2
2018-08-10 18:00;81,35
2018-08-10 18:15;78,3
2018-08-10 18:30;81,1
2018-08-10 18:45;77,9
2018-08-10 19:00;77,95
2018-08-10 19:15;78,6
2018-08-10 19:30;79,15
2018-08-10 19:45;79,9
2018-08-10 20:00;80,55
2018-08-10 20:15;78,45
2018-08-10 20:30;80,85
2018-08-10 20:45;85,4
2018-08-10 21:00;84,45
2018-08-10 21:15;83,3
2018-08-10 21:30;85,05
2018-08-10 21:45;81,4
2018-08-10 22:00;82,3
2018-08-10 22:15;79,45
2018-08-10 22:30;77,8
2018-08-10 22:45;79
2018-08-10 23:00;86,9
2018-08-10 23:15;81,1
2018-08-10 23:30;84,15
2018-08-10 23:45;85,95
2018-08-11 00:00;74,5
2018-08-11 00:15;77,4
2018-08-11 00:30;74,75
2018-08-11 00:45;75,9
2018-08-11 01:00;76,5
2018-08-11 01:15;75,8
2018-08-11 01:30;75,9
2018-08-11 01:45;76,8
2018-08-11 02:00;75,6
2018-08-11 02:15;75,1
2018-08-11 02:30;77,35
2018-08-11 02:45;75,85
2018-08-11 03:00;74,65
2018-08-11 03:15;77,85
2018-08-11 03:30;76,1
2018-08-11 03:45;76,5
2018-08-11 04:00;77,4
2018-08-11 04:15;75,9
2018-08-11 04:30;75,9
2018-08-11 04:45;79
2018-08-11 05:00;76,7
2018-08-11 05:15;77,35
2018-08-11 05:30;77,15
2018-08-11 05:45;76,8
2018-08-11 06:00;76
2018-08-11 06:15;75
2018-08-11 06:30;72,7
2018-08-11 06:45;70,8
2018-08-11 07:00;70,2
2018-08-11 07:15;67,55
2018-08-11 07:30;67,3
2018-08-11 07:45;67,9
2018-08-11 08:00;66,9
2018-08-11 08:15;68,45
2018-08-11 08:30;70,55
2018-08-11 08:45;68,5
2018-08-11 09:00;70,75
2018-08-11 09:15;72,5
2018-08-11 09:30;70,15
2018-08-11 09:45;69,65
2018-08-11 10:00;70,45
2018-08-11 10:15;70,25
2018-08-11 10:30;72,1
2018-08-11 10:45;70,25
2018-08-11 11:00;69,65
2018-08-11 11:15;70,6
2018-08-11 11:30;69,1
2018-08-11 11:45;71,6
2018-08-11 12:00;71,75
2018-08-11 12:15;72,75
2018-08-11 12:30;73,1
2018-08-11 12:45;71,2
2018-08-11 13:00;72,7
2018-08-11 13:15;71,2
2018-08-11 13:30;72,35
2018-08-11 13:45;73,05
2018-08-11 14:00;73,8
2018-08-11 14:15;76,65
2018-08-11 14:30;74,65
2018-08-11 14:45;76,7
2018-08-11 15:00;76,5
2018-08-11 15:15;75,55
2018-08-11 15:30;78,05
2018-08-11 15:45;76,3
2018-08-11 16:00;79,1
2018-08-11 16:15;77,8
2018-08-11 16:30;75,5
2018-08-11 16:45;75,75
2018-08-11 17:00;75
2018-08-11 17:15;75,05
2018-08-11 17:30;74,4
2018-08-11 17:45;73,75
2018-08-11 18:00;76,25
2018-08-11 18:15;74,15
2018-08-11 18:30;75,2
2018-08-11 18:45;74
2018-08-11 19:00;74,05
2018-08-11 19:15;76,2
2018-08-11 19:30;77,3
2018-08-11 19:45;82,9
2018-08-11 20:00;80,8
2018-08-11 20:15;80,45
2018-08-11 20:30;83,2
2018-08-11 20:45;84,45
2018-08-11 21:00;82,8
2018-08-11 21:15;84
2018-08-11 21:30;80,55
2018-08-11 21:45;81,4
2018-08-11 22:00;80,85
2018-08-11 22:15;78,65
2018-08-11 22:30;77,45
2018-08-11 22:45;79,7
2018-08-11 23:00;81,5
2018-08-11 23:15;80,1
2018-08-11 23:30;82,8
2018-08-11 23:45;85,65
2018-08-12 00:00;74,95
2018-08-12 00:15;78,05
2018-08-12 00:30;76,75
2018-08-12 00:45;76
2018-08-12 01:00;77,75
2018-08-12 01:15;74,9
2018-08-12 01:30;75,75
2018-08-12 01:45;74,85
2018-08-12 02:00;74,75
2018-08-12 02:15;75,5
2018-08-12 02:30;74,45
2018-08-12 02:45;74,75
2018-08-12 03:00;75,3
2018-08-12 03:15;75,7
2018-08-12 03:30;74,55
2018-08-12 03:45;76,3
2018-08-12 04:00;77,05
2018-08-12 04:15;74,85
2018-08-12 04:30;77,55
2018-08-12 04:45;76,55
2018-08-12 05:00;77
2018-08-12 05:15;76,75
2018-08-12 05:30;78,4
2018-08-12 05:45;77
2018-08-12 06:00;75,55
2018-08-12 06:15;76,7
2018-08-12 06:30;72,55
2018-08-12 06:45;71
2018-08-12 07:00;69,95
2018-08-12 07:15;68
2018-08-12 07:30;66,4
2018-08-12 07:45;66,6
2018-08-12 08:00;66,4
2018-08-12 08:15;67,85
2018-08-12 08:30;66,75
2018-08-12 08:45;67,7
2018-08-12 09:00;71,95
2018-08-12 09:15;68,7
2018-08-12 09:30;69,25
2018-08-12 09:45;69,85
2018-08-12 10:00;69
2018-08-12 10:15;69,25
2018-08-12 10:30;69,55
2018-08-12 10:45;69,75
2018-08-12 11:00;68,95
2018-08-12 11:15;66,75
2018-08-12 11:30;68,1
2018-08-12 11:45;69,15
2018-08-12 12:00;67,55
2018-08-12 12:15;71,1
2018-08-12 12:30;74,65
2018-08-12 12:45;75,3
2018-08-12 13:00;74,5
2018-08-12 13:15;75,65
2018-08-12 13:30;73,95
2018-08-12 13:45;72,4
2018-08-12 14:00;73,75
2018-08-12 14:15;70,55
2018-08-12 14:30;72,95
2018-08-12 14:45;70,15
2018-08-12 15:00;73,15
2018-08-12 15:15;73,3
2018-08-12 15:30;71,75
2018-08-12 15:45;72,7
2018-08-12 16:00;73,8
2018-08-12 16:15;71,7
2018-08-12 16:30;71,95
2018-08-12 16:45;71,75
2018-08-12 17:00;70,2
2018-08-12 17:15;71,6
2018-08-12 17:30;69,55
2018-08-12 17:45;72,6
2018-08-12 18:00;70,5
2018-08-12 18:15;71,05
2018-08-12 18:30;71,5
2018-08-12 18:45;72,3
2018-08-12 19:00;72,8
2018-08-12 19:15;71,6
2018-08-12 19:30;72,7
2018-08-12 19:45;75,75
2018-08-12 20:00;73,55
2018-08-12 20:15;74,8
2018-08-12 20:30;77,4
2018-08-12 20:45;77,6
2018-08-12 21:00;80,45
2018-08-12 21:15;79
2018-08-12 21:30;78,1
2018-08-12 21:45;78,35
2018-08-12 22:00;76,15
2018-08-12 22:15;74,35
2018-08-12 22:30;75,15
2018-08-12 22:45;73,2
2018-08-12 23:00;78,85
2018-08-12 23:15;77,3
2018-08-12 23:30;78,4
2018-08-12 23:45;82

